{"data":{"norad_id":40348,"intl_designator":"2014-083A","name":"O3B FM10","alt_names":[],"object_type":"PAYLOAD","status":"ACTIVE","operator":null,"country":"O3B","launch_date":"2014-12-18","launch_site_code":"FRGUI","launch_vehicle":null,"mission":null,"orbit_class":"UNKNOWN","rcs_meters":0.4981,"size_class":null,"mass_kg":null,"dimensions":null,"purposes":["comms"],"wikipedia_slug":null,"has_3d_model":false,"image_url":null,"decayed_at":null,"tle_current":{"epoch":"2026-05-24T18:31:56.871264Z","epoch_age_seconds":104900,"freshness":"FRESH","line1":"1 40348U 14083A   26144.77218601 -.00000024  00000+0  00000+0 0  9999","line2":"2 40348   0.0437 329.9798 0002734  91.9997 298.0474  5.00115328208720","mean_motion":5.00115328,"eccentricity":0.0002734,"inclination_deg":0.0437,"raan_deg":329.9798,"arg_perigee_deg":91.9997,"mean_anomaly_deg":298.0474,"bstar":0,"rev_number":20872,"period_min":287.9335863907,"perigee_km":8061.944532074,"apogee_km":8069.8425279679,"semimajor_km":14444.030530021,"source":"CELESTRAK","updated_at":"2026-05-25T13:38:14.510388Z"}}}